Meteo Giornale » Osservazioni meteo Indonesia » Menado-Dr Sam Ratulangi
ore: 12:00 - Osservazioni Meteo Menado-Dr Sam Ratulangi
Lat. 1° 32' N Lon. 124° 55' E Alt. 80 metri s.l.m.
34 °C
Poco Nuvoloso
Temp. 24 Ore
24 °C
34 °C
Sud/Sud-Est
18.5 Km/h
Dew point 20 °C
Umidità 43 %
Visibilità 10 Km
Il sole sorge alle ore 05:36
Il sole tramonta alle ore 17:44
| Data e Ora | Cielo e Fenomeni | T °C | DP °C | Um. % | Pres. hPa | Vis. km | Vento km/h | |
|---|---|---|---|---|---|---|---|---|
| Oggi h: 12:00 | Poco Nuvoloso | 34 | 20 | 43 | 1014 | 10 | S/SE 18.5 | |
| Oggi h: 11:30 | Poco Nuvoloso | 34 | 20 | 43 | 1014 | 10 | S 20.3 | |
| Oggi h: 11:00 | Poco Nuvoloso | 34 | 19 | 41 | 1015 | 10 | S/SE 22.2 | |
| Oggi h: 10:30 | Poco Nuvoloso | 33 | 20 | 46 | 1015 | 10 | S/SE 22.2 | |
| Oggi h: 10:00 | Poco Nuvoloso | 33 | 20 | 46 | 1015 | 10 | S 18.5 | |
| Oggi h: 09:30 | Poco Nuvoloso | 32 | 19 | 46 | 1015 | 10 | S/SE 22.2 | |
| Oggi h: 09:00 | Poco Nuvoloso | 31 | 19 | 48 | 1015 | 10 | S 20.3 | |
| Oggi h: 08:30 | Poco Nuvoloso | 31 | 19 | 48 | 1016 | 10 | S/SE 27.8 | |
| Oggi h: 08:00 | Poco Nuvoloso | 30 | 19 | 51 | 1015 | 10 | S 18.5 | |
| Oggi h: 07:30 | Poco Nuvoloso | 29 | 19 | 54 | 1015 | 10 | S 16.7 | |
| Oggi h: 07:00 | Poco Nuvoloso | 28 | 20 | 61 | 1015 | 10 | SE 11.1 | |
| Oggi h: 06:30 | Poco Nuvoloso | 26 | 20 | 69 | 1015 | 10 | SE 9.3 | |
| Oggi h: 06:00 | Poco Nuvoloso | 25 | 20 | 73 | 1015 | 10 | SE 9.3 | |
| Oggi h: 05:30 | Poco Nuvoloso | 24 | 20 | 78 | 1015 | 10 | S/SE 9.3 | |
| Oggi h: 05:00 | Poco Nuvoloso | 25 | 21 | 78 | 1014 | 10 | N 5.5 | |
| Oggi h: 04:30 | Poco Nuvoloso | 24 | 21 | 83 | 1014 | 10 | N 1.8 | |
| Oggi h: 04:00 | Poco Nuvoloso | 24 | 21 | 83 | 1014 | 10 | N 5.5 | |
| Oggi h: 03:30 | Poco Nuvoloso | 25 | 21 | 78 | 1014 | 10 | SE 7.4 | |
| Oggi h: 03:00 | Poco Nuvoloso | 25 | 21 | 78 | 1014 | 10 | E/SE 9.3 | |
| Oggi h: 02:30 | Poco Nuvoloso | 25 | 21 | 78 | 1014 | 10 | SE 7.4 | |
| Oggi h: 02:00 | Poco Nuvoloso | 26 | 21 | 73 | 1014 | 10 | SE 9.3 | |
| Oggi h: 01:30 | Poco Nuvoloso | 26 | 20 | 69 | 1014 | 10 | SE 7.4 | |
| Oggi h: 01:00 | Poco Nuvoloso | 28 | 20 | 61 | 1014 | 10 | S/SE 16.7 | |
| Oggi h: 00:30 | Poco Nuvoloso | 28 | 20 | 61 | 1015 | 10 | S 18.5 | |
| Oggi h: 00:00 | Poco Nuvoloso | 28 | 20 | 61 | 1015 | 10 | S/SE 24 | |
| Ieri h: 23:30 | Poco Nuvoloso | 28 | 18 | 54 | 1015 | 10 | S 24 | |
| Ieri h: 23:00 | Poco Nuvoloso | 28 | 17 | 51 | 1015 | 10 | S 22.2 | |
| Ieri h: 22:30 | Poco Nuvoloso | 28 | 18 | 54 | 1015 | 10 | S 24 | |
| Ieri h: 22:00 | Poco Nuvoloso | 28 | 18 | 54 | 1015 | 10 | S 22.2 | |
| Ieri h: 21:30 | Poco Nuvoloso | 28 | 18 | 54 | 1015 | 10 | S 24 | |
| Ieri h: 21:00 | Poco Nuvoloso | 29 | 18 | 51 | 1015 | 10 | S 25.9 | |
| Ieri h: 20:30 | Poco Nuvoloso | 29 | 18 | 51 | 1015 | 10 | S 25.9 | |
| Ieri h: 20:00 | Poco Nuvoloso | 29 | 17 | 48 | 1015 | 10 | S 22.2 | |
| Ieri h: 19:30 | Poco Nuvoloso | 29 | 17 | 48 | 1015 | 10 | S 20.3 | |
| Ieri h: 19:00 | Poco Nuvoloso | 29 | 18 | 51 | 1015 | 10 | S 13 | |
| Ieri h: 18:30 | Poco Nuvoloso | 29 | 19 | 54 | 1014 | 10 | S 18.5 | |
| Ieri h: 18:00 | Poco Nuvoloso | 30 | 19 | 51 | 1014 | 10 | S 24 | |
| Ieri h: 17:30 | Poco Nuvoloso | 31 | 20 | 52 | 1013 | 10 | S 24 | |
| Ieri h: 17:00 | Poco Nuvoloso | 31 | 20 | 52 | 1013 | 10 | S 24 | |
| Ieri h: 16:30 | Nuvoloso | 32 | 20 | 49 | 1013 | 10 | S 16.7 | |
| Ieri h: 16:00 | Nuvoloso | 32 | 22 | 55 | 1012 | 10 | N 5.5 | |
| Ieri h: 15:30 | Nuvoloso | 33 | 21 | 49 | 1012 | 10 | N 7.4 | |
| Ieri h: 15:00 | Nuvoloso | 33 | 22 | 52 | 1012 | 10 | N 7.4 | |
| Ieri h: 14:30 | Poco Nuvoloso | 34 | 21 | 46 | 1012 | 10 | N 13 | |
| Ieri h: 14:00 | Poco Nuvoloso | 33 | 22 | 52 | 1013 | 10 | N 16.7 | |
| Ieri h: 13:30 | Poco Nuvoloso | 34 | 21 | 46 | 1013 | 10 | N 16.7 | |
| Ieri h: 13:00 | Poco Nuvoloso | 34 | 21 | 46 | 1013 | 10 | N/NO 16.7 | |



